Date String (YYYY-MM-DD hh:mm:ss) UTC,Instrument flags,Ambient pressure (hPa),Sample flow (lpm),Bypass flow (lpm),Sample temperature (°C),Ambient temperature (°C),ASC tube jacket temperature (°C),LED temperature (°C),Box temperature (°C),Sample RH (%),Span deviation,Mass concentration (μg/m³),Mass concentration (μg/m³),Mass concentration (μg/m³)
DateTimeUTC,F1_M11,P_M11,Q1_M11,Q2_M11,T1_M11,T2_M11,T3_M11,T4_M11,T5_M11,U1_M11,ZSPAN_M11,X0_M11,X2_M11,X1_M11
2021-09-25 10:00:00,,0830.3,5.00,0.00,30.6,29.6,00.0,39.8,32.3,15.6,0003.6,0018.28,0007.02,0005.33
2021-09-25 10:01:00,,0830.3,4.99,0.00,30.6,29.6,00.0,39.8,32.3,15.6,0004.0,0017.10,0006.94,0005.33
2021-09-25 10:02:00,,0830.3,5.01,0.00,30.6,29.6,00.0,39.8,32.3,15.6,0004.2,0016.51,0006.89,0005.33
2021-09-25 10:03:00,,0830.4,4.99,0.00,30.6,29.6,00.0,39.8,32.3,15.6,0004.3,0015.96,0006.81,0005.33
2021-09-25 10:04:00,,0830.3,5.00,0.00,30.6,29.6,00.0,39.8,32.3,15.6,0004.1,0016.29,0006.73,0005.32
2021-09-25 10:05:00,,0830.4,5.01,0.00,30.6,29.7,00.0,39.8,32.3,15.6,0003.7,0016.65,0006.72,0005.32
2021-09-25 10:06:00,,0830.3,5.00,0.00,30.6,29.7,00.0,39.8,32.3,15.5,0003.8,0017.14,0006.74,0005.31
2021-09-25 10:07:00,,0830.3,4.99,0.00,30.6,29.7,00.0,39.8,32.3,15.5,0003.7,0017.61,0006.76,0005.32
2021-09-25 10:08:00,,0830.3,5.00,0.00,30.6,29.7,00.0,39.8,32.3,15.6,0003.6,0018.08,0006.81,0005.33
2021-09-25 10:09:00,,0830.3,5.00,0.00,30.6,29.7,00.0,39.8,32.3,15.6,0002.7,0019.62,0006.90,0005.34
2021-09-25 10:10:00,,0830.4,5.00,0.00,30.6,29.7,00.0,39.8,32.3,15.6,0001.9,0019.62,0006.91,0005.35
2021-09-25 10:11:00,,0830.4,4.99,0.00,30.6,29.7,00.0,39.8,32.3,15.6,0002.1,0018.97,0006.93,0005.38
2021-09-25 10:12:00,,0830.4,5.00,0.00,30.6,29.6,00.0,39.8,32.3,15.6,0001.8,0019.21,0006.94,0005.39
2021-09-25 10:13:00,,0830.4,4.99,0.00,30.6,29.6,00.0,39.8,32.3,15.6,0001.4,0019.82,0007.02,0005.40
2021-09-25 10:14:00,,0830.4,5.00,0.00,30.6,29.7,00.0,39.8,32.3,15.6,0000.6,0020.76,0007.12,0005.42
2021-09-25 10:15:00,,0830.4,5.01,0.00,30.6,29.6,00.0,39.8,32.3,15.6,0001.4,0021.70,0007.18,0005.44
2021-09-25 10:16:00,,0830.5,5.00,0.00,30.6,29.6,00.0,39.8,32.3,15.7,0001.7,0022.27,0007.13,0005.44
2021-09-25 10:17:00,,0830.5,4.99,0.00,30.6,29.6,00.0,39.8,32.3,15.7,0001.5,0021.42,0007.05,0005.44
2021-09-25 10:18:00,,0830.5,5.01,0.00,30.6,29.6,00.0,39.8,32.3,15.8,0001.1,0020.87,0007.03,0005.43
2021-09-25 10:19:00,,0830.4,4.99,0.00,30.6,29.7,00.0,39.8,32.3,15.9,0001.4,0020.25,0007.01,0005.42
2021-09-25 10:20:00,,0830.4,5.01,0.00,30.6,29.6,00.0,39.8,32.3,16.0,0002.0,0020.06,0007.04,0005.43
2021-09-25 10:21:00,,0830.4,5.01,0.00,30.6,29.6,00.0,39.8,32.3,15.9,0002.1,0020.29,0007.08,0005.44
2021-09-25 10:22:00,,0830.4,4.98,0.00,30.6,29.6,00.0,39.8,32.3,15.8,0001.8,0020.70,0007.16,0005.45
2021-09-25 10:23:00,,0830.3,5.01,0.00,30.6,29.7,00.0,39.8,32.3,15.7,0002.0,0021.37,0007.22,0005.46
2021-09-25 10:24:00,,0830.4,5.00,0.00,30.6,29.6,00.0,39.8,32.3,15.6,0001.8,0021.45,0007.22,0005.45
2021-09-25 10:25:00,,0830.5,4.99,0.00,30.6,29.6,00.0,39.8,32.3,15.6,0001.6,0021.20,0007.16,0005.44
2021-09-25 10:26:00,,0830.4,5.00,0.00,30.6,29.6,00.0,39.8,32.3,15.7,0001.4,0019.84,0007.14,0005.44
2021-09-25 10:27:00,,0830.4,5.00,0.00,30.6,29.6,00.0,39.8,32.3,15.6,0001.7,0018.41,0007.14,0005.44
2021-09-25 10:28:00,,0830.4,5.01,0.00,30.6,29.6,00.0,39.8,32.3,15.6,0001.6,0018.59,0007.14,0005.43
2021-09-25 10:29:00,,0830.4,4.99,0.00,30.6,29.6,00.0,39.8,32.3,15.6,0001.6,0018.64,0007.11,0005.42
2021-09-25 10:30:00,,0830.4,5.00,0.00,30.6,29.6,00.0,39.8,32.3,15.6,0001.4,0019.04,0007.11,0005.39
2021-09-25 10:31:00,,0830.4,5.01,0.00,30.6,29.6,00.0,39.8,32.3,15.6,0000.5,0018.28,0007.01,0005.38
2021-09-25 10:32:00,,0830.4,5.00,0.00,30.6,29.7,00.0,39.8,32.2,15.6,0000.0,0018.29,0006.89,0005.36
2021-09-25 10:33:00,,0830.4,4.99,0.00,30.6,29.7,00.0,39.8,32.3,15.7,0000.0,0018.74,0006.82,0005.35
2021-09-25 10:34:00,,0830.4,4.99,0.00,30.6,29.6,00.0,39.8,32.3,15.6,0000.0,0017.90,0006.74,0005.32
2021-09-25 10:35:00,,0830.4,5.00,0.00,30.6,29.6,00.0,39.8,32.3,15.6,0000.0,0018.88,0006.76,0005.32
2021-09-25 10:36:00,,0830.4,5.01,0.00,30.6,29.6,00.0,39.8,32.3,15.6,0000.0,0019.36,0006.80,0005.33
2021-09-25 10:37:00,,0830.4,5.00,0.00,30.6,29.6,00.0,39.8,32.3,15.7,0000.0,0019.42,0006.81,0005.33
2021-09-25 10:38:00,,0830.4,4.99,0.00,30.6,29.6,00.0,39.8,32.3,15.7,0000.0,0020.15,0006.80,0005.33
2021-09-25 10:39:00,,0830.3,5.01,0.00,30.6,29.6,00.0,39.8,32.2,15.7,0000.3,0020.23,0006.76,0005.32
2021-09-25 10:40:00,,0830.4,4.99,0.00,30.5,29.5,00.0,39.7,32.2,15.8,0000.0,0020.22,0006.80,0005.32
2021-09-25 10:41:00,,0830.4,4.99,0.00,30.5,29.5,00.0,39.7,32.2,16.0,0000.0,0021.37,0006.83,0005.33
2021-09-25 10:42:00,,0830.4,5.00,0.00,30.5,29.5,00.0,39.7,32.2,16.1,0000.0,0021.14,0006.82,0005.33
2021-09-25 10:43:00,,0830.3,5.00,0.00,30.5,29.5,00.0,39.7,32.2,16.2,0001.0,0019.90,0006.89,0005.35
2021-09-25 10:44:00,,0830.4,5.00,0.00,30.5,29.5,00.0,39.7,32.2,16.3,0002.1,0019.56,0006.97,0005.37
2021-09-25 10:45:00,,0830.4,5.00,0.00,30.5,29.5,00.0,39.7,32.2,16.1,0002.2,0019.91,0007.07,0005.39
2021-09-25 10:46:00,,0830.4,4.99,0.00,30.5,29.5,00.0,39.7,32.2,16.2,0002.3,0018.92,0007.01,0005.39
2021-09-25 10:47:00,,0830.3,5.01,0.00,30.5,29.5,00.0,39.7,32.2,16.3,0002.2,0019.41,0007.01,0005.40
2021-09-25 10:48:00,,0830.4,5.00,0.00,30.5,29.5,00.0,39.7,32.2,16.3,0001.4,0019.50,0007.04,0005.42
2021-09-25 10:49:00,,0830.4,4.99,0.00,30.5,29.5,00.0,39.7,32.2,16.3,0001.6,0019.32,0007.09,0005.45
2021-09-25 10:50:00,,0830.4,5.01,0.00,30.5,29.6,00.0,39.7,32.2,16.2,0002.0,0020.42,0007.20,0005.48
2021-09-25 10:51:00,,0830.4,4.99,0.00,30.5,29.6,00.0,39.7,32.2,16.2,0001.8,0020.53,0007.17,0005.49
2021-09-25 10:52:00,,0830.5,4.99,0.00,30.5,29.6,00.0,39.7,32.2,16.2,0001.6,0020.82,0007.22,0005.51
2021-09-25 10:53:00,,0830.4,5.00,0.00,30.5,29.5,00.0,39.7,32.2,16.2,0001.3,0023.69,0007.29,0005.52
2021-09-25 10:54:00,,0830.4,5.01,0.00,30.5,29.5,00.0,39.7,32.2,16.3,0001.0,0024.05,0007.31,0005.52
2021-09-25 10:55:00,,0830.4,5.00,0.00,30.5,29.5,00.0,39.7,32.2,16.3,0001.1,0024.11,0007.30,0005.52
2021-09-25 10:56:00,,0830.3,5.00,0.00,30.5,29.5,00.0,39.7,32.2,16.3,0001.7,0024.83,0007.30,0005.53
2021-09-25 10:57:00,,0830.3,5.00,0.00,30.5,29.5,00.0,39.6,32.2,16.3,0001.6,0024.61,0007.37,0005.55
2021-09-25 10:58:00,,0830.4,5.00,0.00,30.5,29.5,00.0,39.6,32.1,16.4,0001.9,0023.12,0007.36,0005.54
2021-09-25 10:59:00,,0830.4,5.00,0.00,30.4,29.4,00.0,39.6,32.1,16.4,0002.6,0022.75,0007.37,0005.54
